Osoyoos, British Columbia

9:19 PM PST on December 03, 2016 (GMT -0800)
Osoyoos

Weather History for CWYY - August, 2014

Change the Weather History Date:

Sunday, August 17, 2014

  Actual Average (CYYF) Record (CYYF)
Temperature  
Mean Temperature 76 °F -  
Max Temperature 91 °F 80 °F 93 °F (2001)
Min Temperature 60 °F 54 °F 44 °F (2002)
Cooling Degree Days 10    
Growing Degree Days 26 (Base 50)    
Moisture  
Dew Point 58 °F    
Average Humidity 58    
Maximum Humidity 92    
Minimum Humidity 21    
Precipitation  
Precipitation 0.00 in - - ()
Sea Level Pressure  
Sea Level Pressure 30.00 in    
Wind  
Wind Speed 2 mph ()    
Max Wind Speed 6 mph    
Max Gust Speed -    
Averages and records for this station are not official NWS values.
T = Trace of Precipitation, MM = Missing Value Source: Averaged Metar Reports

Daily Weather History Graph

Daily Weather History Graph

Search for Another Location

Airport or City:

Trip Planner

Search our weather history database for the weather conditions in past years. The results will help you decide how hot, cold, wet, or windy it might be!

Date:

Astronomy

Aug. 17, 2014 Rise Set
Actual Time 5:53 AM PDT 8:09 PM PDT
Civil Twilight 5:18 AM PDT 8:44 PM PDT
Nautical Twilight 4:34 AM PDT 9:27 PM PDT
Astronomical Twilight 3:44 AM PDT 10:16 PM PDT
Moon 11:58 PM PDT (8/17) 2:25 PM PDT (8/17)
Length of Visible Light 15h 26m
Length of Day
14h 16m
Waning Gibbous, 47% of the Moon is Illuminated
Aug 17
Waning Gibbous
Aug 25
New
Sep 2
First Quarter
Sep 8
Full
Sep 15
Last Quarter

Hourly Weather History & Observations

Time (PDT) Temp. Heat Index Dew Point Humidity Pressure Visibility Wind Dir Wind Speed Gust Speed Precip Events Conditions
12:00 AM 66.7 °F - 63.1 °F 88% 30.00 in - ENE 1.2 mph - N/A   Unknown
1:00 AM 67.3 °F - 61.2 °F 81% 30.00 in - NNE 1.2 mph - N/A   Unknown
2:00 AM 64.9 °F - 61.0 °F 87% 30.00 in - Calm Calm - N/A   Unknown
3:00 AM 63.0 °F - 60.1 °F 90% 30.01 in - ENE 1.2 mph - N/A   Unknown
5:00 AM 62 °F - 59 °F 85% 30.03 in - Calm Calm - -  
5:00 AM 61.5 °F - 58.6 °F 90% 30.03 in - Calm Calm - N/A   Unknown
6:00 AM 60.4 °F - 56.3 °F 86% 30.05 in - ENE 1.2 mph - N/A   Unknown
7:00 AM 61.7 °F - 59.4 °F 92% 30.06 in - ENE 1.2 mph - N/A   Unknown
8:00 AM 66.9 °F - 59.9 °F 78% 30.06 in - Calm Calm - N/A   Unknown
9:00 AM 70.3 °F - 59.7 °F 69% 30.06 in - West 1.2 mph - N/A   Unknown
10:00 AM 73.8 °F - 58.3 °F 58% 30.06 in - West 2.3 mph - N/A   Unknown
11:00 AM 76 °F - 59 °F 45% 30.04 in - SSW 3.5 mph - -  
11:00 AM 75.7 °F - 58.8 °F 56% 30.04 in - SSW 3.5 mph - N/A   Unknown
12:00 PM 80.2 °F 80.8 °F 58.8 °F 48% 30.02 in - NNW 2.3 mph - N/A   Unknown
1:00 PM 82.9 °F 82.3 °F 56.5 °F 40% 30.01 in - NNW 3.5 mph - N/A   Unknown
2:00 PM 86.7 °F 85.3 °F 56.1 °F 35% 29.99 in - SW 2.3 mph - N/A   Unknown
3:00 PM 90.0 °F 87.7 °F 53.8 °F 29% 29.97 in - WNW 4.6 mph - N/A   Unknown
4:00 PM 90.3 °F 88.1 °F 53.6 °F 29% 29.95 in - WNW 5.8 mph - N/A   Unknown
5:00 PM 89 °F - 54 °F 21% 29.95 in - NW 4.6 mph - -  
5:00 PM 89.4 °F - 52.7 °F 28% 29.95 in - NW 4.6 mph - N/A   Unknown
6:00 PM 86.5 °F 85.1 °F 55.6 °F 35% 29.94 in - NW 4.6 mph - N/A   Unknown
7:00 PM 87.4 °F 85.3 °F 53.1 °F 31% 29.93 in - West 3.5 mph - N/A   Unknown
8:00 PM 78.6 °F - 62.1 °F 57% 29.94 in - NE 2.3 mph - N/A   Unknown
9:00 PM 79.3 °F - 58.3 °F 48% 29.95 in - North 3.5 mph - N/A   Unknown
10:00 PM 77.0 °F - 58.5 °F 53% 29.96 in - NNE 3.5 mph - N/A   Unknown
11:00 PM 74 °F - 58 °F 49% 29.96 in - Calm Calm - -  
11:00 PM 73.9 °F - 58.5 °F 58% 29.96 in - Calm Calm - N/A   Unknown